Location: Czekanka
(50.4925°N, 19.2643°E)
Time: 03:34:53
(UTC+00:00)

CZ-2D R/B - Visible Passes

Search period start: 16 September 2024 00:00
Search period end: 26 September 2024 00:00
Orbit: 791 x 842 km, 98.8° (Epoch: 15 September)

Date Brightness Start Highest point End Pass type
(mag) Time Alt. Az. Time Alt. Az. Time Alt. Az.
16 Sep 2.2 01:29:18 10° N 01:34:42 61° WNW 01:35:03 60° W visible
16 Sep 4.1 03:11:06 10° NNW 03:13:40 14° NW 03:16:13 10° WNW visible
16 Sep 4.4 23:28:46 10° NE 23:31:36 16° E 23:31:36 16° E visible
17 Sep 2.1 01:07:24 10° NNE 01:12:52 87° NW 01:12:52 87° NW visible
17 Sep 3.8 02:48:32 10° NNW 02:52:12 19° NW 02:54:08 16° W visible
17 Sep 4.8 23:08:43 10° ENE 23:09:25 11° ENE 23:09:25 11° ENE visible
18 Sep 2.5 00:45:37 10° NNE 00:50:41 63° ENE 00:50:41 63° ENE visible
18 Sep 3.4 02:26:16 10° N 02:30:41 25° WNW 02:31:57 23° W visible
19 Sep 3.1 00:23:56 10° NNE 00:28:30 42° ENE 00:28:30 42° ENE visible
19 Sep 2.9 02:04:09 10° N 02:09:04 35° WNW 02:09:46 34° WNW visible
20 Sep 3.7 00:02:23 10° NNE 00:06:19 29° ENE 00:06:19 29° ENE visible
20 Sep 2.4 01:42:08 10° N 01:47:25 50° WNW 01:47:35 49° WNW visible
20 Sep 4.2 03:24:41 10° NNW 03:26:12 11° NW 03:27:43 10° WNW visible
20 Sep 4.2 23:41:04 10° NE 23:44:07 20° ENE 23:44:07 20° ENE visible
21 Sep 2.2 01:20:12 10° NNE 01:25:23 70° NW 01:25:23 70° NW visible
21 Sep 3.9 03:01:40 10° NNW 03:04:47 15° NW 03:06:40 13° WNW visible
21 Sep 4.7 23:20:13 10° NE 23:21:56 13° ENE 23:21:56 13° ENE visible
22 Sep 2.4 00:58:21 10° NNE 01:03:11 68° NE 01:03:11 68° NE visible
22 Sep 3.6 02:39:16 10° N 02:43:17 21° NW 02:44:28 20° WNW visible
23 Sep 3.0 00:36:36 10° NNE 00:41:00 48° ENE 00:41:00 48° ENE visible
23 Sep 3.2 02:17:04 10° N 02:21:43 29° WNW 02:22:16 28° WNW visible
24 Sep 3.6 00:14:58 10° NNE 00:18:48 33° ENE 00:18:48 33° ENE visible
24 Sep 2.7 01:54:59 10° N 02:00:04 40° WNW 02:00:04 40° WNW visible
24 Sep 4.1 23:53:30 10° NE 23:56:35 23° ENE 23:56:35 23° ENE visible
25 Sep 2.4 01:33:00 10° N 01:37:52 55° NW 01:37:52 55° NW visible
25 Sep 4.1 03:14:58 10° NNW 03:17:18 13° NW 03:19:09 11° WNW visible
25 Sep 4.5 23:32:20 10° NE 23:34:23 16° ENE 23:34:23 16° ENE visible
